EW9525 Weather Reports


time (UTC)temp
C
wind
direction
speed
KPH
gust
KPH
rain 1hr
cm
rain 24hr
cm
rain mn
cm
humidity
%
barometer
mb
20260902123002 17 259 1.6 4.8 0.00 0.00 0.00 79 1008.3
20260902121501 17 184 3.2 6.4 0.00 0.00 0.00 79 1008.3
20260902120101 18 206 1.6 3.2 0.00 0.00 0.00 76 1008.1
20260902114600 18 287 1.6 6.4 0.00 0.00 0.00 76 1008.0
20260902113059 18 275 1.6 4.8 0.00 0.00 0.00 77 1008.1
20260902111600 18 262 1.6 6.4 0.00 0.00 0.00 76 1007.9
20260902104559 18 221 3.2 9.7 0.00 0.00 0.00 78 1008.0
20260902103101 17 211 4.8 6.4 0.00 0.00 0.00 81 1008.1
20260902101559 17 210 3.2 4.8 0.00 0.00 0.00 80 1007.9
20260902100054 17 231 3.2 4.8 0.00 0.00 0.00 80 1007.8
20260902094552 18 221 3.2 4.8 0.00 0.00 0.00 78 1007.9
20260902093118 18 222 1.6 4.8 0.00 0.00 0.00 79 1008.0
20260902091554 18 201 3.2 6.4 0.00 0.00 0.00 79 1008.0
20260902090056 18 220 3.2 6.4 0.00 0.00 0.00 78 1008.0
20260902084555 18 214 4.8 6.4 0.00 0.00 0.00 78 1008.0
20260902083051 18 201 4.8 8.0 0.00 0.00 0.00 77 1007.8
20260902081600 18 197 3.2 4.8 0.00 0.00 0.00 77 1007.5
20260902080043 18 220 3.2 4.8 0.00 0.00 0.00 76 1007.6
20260902074538 19 217 3.2 6.4 0.00 0.00 0.00 74 1007.5
20260902073036 19 174 4.8 6.4 0.00 0.00 0.00 74 1007.5
20260902071536 20 207 3.2 6.4 0.00 0.00 0.00 71 1007.3
20260902070030 21 188 1.6 6.4 0.00 0.00 0.00 67 1007.5
20260902064529 21 257 1.6 6.4 0.00 0.00 0.00 67 1007.2
20260902063031 20 278 0.0 6.4 0.00 0.00 0.00 69 1007.4
20260902061540 21 265 1.6 4.8 0.00 0.00 0.00 69 1007.2
20260902060024 20 216 1.6 3.2 0.00 0.00 0.00 72 1007.4
20260902054520 21 225 4.8 6.4 0.00 0.00 0.00 69 1007.4
20260902053020 22 247 3.2 4.8 0.00 0.00 0.00 63 1007.2
20260902051517 22 234 3.2 6.4 0.00 0.00 0.00 66 1007.2
20260902050013 22 195 3.2 4.8 0.00 0.00 0.00 63 1007.1
20260902044512 23 220 3.2 4.8 0.00 0.00 0.00 60 1007.1
20260902043011 24 217 1.6 4.8 0.00 0.00 0.00 57 1007.2
20260902041513 25 229 4.8 8.0 0.00 0.00 0.00 55 1007.4
20260902040013 24 216 4.8 9.7 0.00 0.00 0.00 57 1007.5
20260902034511 24 202 4.8 6.4 0.00 0.00 0.00 57 1007.6
20260902033011 25 207 4.8 11.3 0.00 0.00 0.00 56 1007.3
20260902031509 25 218 4.8 9.7 0.00 0.00 0.00 56 1007.1
20260902030009 25 202 4.8 6.4 0.00 0.00 0.00 55 1006.9
20260902024518 26 217 6.4 12.9 0.00 0.00 0.00 51 1006.7
20260902023008 25 236 4.8 8.0 0.00 0.00 0.00 54 1006.6
20260902021508 26 211 6.4 9.7 0.00 0.00 0.00 52 1006.4
20260902020007 26 208 4.8 6.4 0.00 0.00 0.00 50 1006.1
20260902014507 27 217 3.2 4.8 0.00 0.00 0.00 48 1006.1
20260902013005 28 202 1.6 3.2 0.00 0.00 0.00 45 1006.1
20260902011505 28 198 0.0 0.0 0.00 0.00 0.00 44 1006.1
20260902010012 30 193 0.0 1.6 0.00 0.00 0.00 41 1006.1
20260902004504 31 200 0.0 6.4 0.00 0.00 0.00 38 1006.2
20260902003003 31 161 4.8 11.3 0.00 0.00 0.00 38 1006.2
20260902001503 32 188 9.7 16.1 0.00 0.00 0.00 36 1006.1
20260902000003 32 150 9.7 17.7 0.00 0.00 0.00 37 1006.0
20260901234502 32 152 11.3 17.7 0.00 0.00 0.00 36 1005.9
20260901233001 32 180 14.5 20.9 0.00 0.00 0.00 35 1006.0
20260901231601 33 162 14.5 25.7 0.00 0.00 0.00 34 1006.0
20260901230059 33 161 9.7 19.3 0.00 0.00 0.00 38 1006.1
20260901224558 34 135 9.7 17.7 0.00 0.00 0.00 33 1006.2
20260901223058 33 162 12.9 22.5 0.00 0.00 0.00 33 1006.3
20260901221557 34 136 12.9 19.3 0.00 0.00 0.00 34 1006.3
20260901220055 35 157 12.9 19.3 0.00 0.00 0.00 31 1006.5
20260901214552 35 166 8.0 14.5 0.00 0.00 0.00 34 1006.8
20260901213109 33 181 9.7 14.5 0.00 0.00 0.00 35 1006.9
20260901211547 33 210 11.3 20.9 0.00 0.00 0.00 34 1007.3
20260901210045 33 215 16.1 29.0 0.00 0.00 0.00 32 1007.4
20260901204547 32 129 8.0 0.0 0.00 0.00 0.00 41 1007.8
20260901203041 32 158 8.0 12.9 0.00 0.00 0.00 45 1008.1
20260901201540 32 146 8.0 12.9 0.00 0.00 0.00 43 1008.2
20260901200040 33 135 9.7 17.7 0.00 0.00 0.00 39 1008.3
20260901194536 33 161 11.3 17.7 0.00 0.00 0.00 38 1008.3
20260901193033 32 101 12.9 19.3 0.00 0.00 0.00 42 1008.6
20260901191532 32 100 8.0 14.5 0.00 0.00 0.00 42 1008.9
20260901190033 32 86 8.0 17.7 0.00 0.00 0.00 43 1009.1
20260901184540 32 134 9.7 20.9 0.00 0.00 0.00 42 1009.1
20260901183030 32 147 9.7 20.9 0.00 0.00 0.00 43 1009.3
20260901181532 32 139 9.7 16.1 0.00 0.00 0.00 43 1009.9
20260901180024 31 167 6.4 14.5 0.00 0.00 0.00 45 1009.9
20260901174521 31 93 8.0 16.1 0.00 0.00 0.00 44 1010.1
20260901173018 30 77 11.3 17.7 0.00 0.00 0.00 48 1010.0
20260901171516 30 74 9.7 16.1 0.00 0.00 0.00 49 1010.2
20260901170019 30 108 1.6 14.5 0.00 0.00 0.00 48 1010.5
20260901164515 29 172 3.2 11.3 0.00 0.00 0.00 50 1010.8
20260901163013 28 87 4.8 11.3 0.00 0.00 0.00 52 1010.8
20260901161507 27 134 6.4 9.7 0.00 0.00 0.00 56 1010.9
20260901160005 27 43 1.6 8.0 0.00 0.00 0.00 59 1010.8
20260901154503 26 11 3.2 9.7 0.00 0.00 0.00 60 1010.8
20260901153102 26 85 8.0 16.1 0.00 0.00 0.00 62 1010.5
20260901151559 26 84 6.4 11.3 0.00 0.00 0.00 62 1010.6
20260901150107 26 109 1.6 6.4 0.00 0.00 0.00 60 1011.0
20260901144556 26 75 0.0 3.2 0.00 0.00 0.00 60 1011.1
20260901143054 24 85 0.0 3.2 0.00 0.00 0.00 66 1011.0
20260901141551 23 55 4.8 8.0 0.00 0.00 0.00 71 1010.9
20260901140053 22 60 6.4 11.3 0.00 0.00 0.00 75 1011.0
20260901134615 21 46 11.3 14.5 0.00 0.00 0.00 78 1011.0
20260901133056 20 222 0.0 6.4 0.00 0.00 0.00 81 1010.6
20260901131549 19 218 3.2 6.4 0.00 0.00 0.00 84 1010.5
20260901130049 18 199 1.6 3.2 0.00 0.00 0.00 85 1010.2
20260901124554 18 212 0.0 0.0 0.00 0.00 0.00 83 1010.0